FW5813 Weather Reports


time (UTC)temp
C
wind
direction
speed
KPH
gust
KPH
rain 1hr
cm
rain 24hr
cm
rain mn
cm
humidity
%
barometer
mb
20260507195840 16 143 0.0 6.4 0.00 0.00 0.00 60 1013.5
20260507195340 16 226 0.0 6.4 0.00 0.00 0.00 59 1013.9
20260507194840 16 342 1.6 17.7 0.00 0.00 0.00 59 1013.4
20260507194339 16 287 6.4 17.7 0.00 0.00 0.00 60 1013.4
20260507193840 16 217 4.8 11.3 0.00 0.00 0.00 62 1013.3
20260507193355 15 221 6.4 9.7 0.00 0.00 0.00 63 1013.3
20260507192840 16 240 1.6 6.4 0.00 0.00 0.00 63 1013.4
20260507192339 16 235 4.8 6.4 0.00 0.00 0.00 62 1013.2
20260507191839 16 226 1.6 4.8 0.00 0.00 0.00 62 1013.1
20260507191340 15 89 0.0 3.2 0.00 0.00 0.00 64 1012.9
20260507190839 15 282 0.0 6.4 0.00 0.00 0.00 68 1012.9
20260507190340 15 245 0.0 8.0 0.00 0.00 0.00 74 1012.9
20260507185839 15 242 3.2 8.0 0.00 0.00 0.00 74 1012.7
20260507185339 15 218 3.2 4.8 0.00 0.00 0.00 74 1012.8
20260507184840 15 242 3.2 6.4 0.00 0.00 0.00 74 1012.8
20260507184339 15 217 0.0 8.0 0.00 0.00 0.00 74 1012.8
20260507183841 15 172 4.8 8.0 0.00 0.00 0.00 74 1012.7
20260507182840 15 224 4.8 8.0 0.00 0.00 0.00 72 1012.6
20260507181839 15 213 3.2 6.4 0.00 0.00 0.00 71 1012.5
20260507181340 16 174 1.6 6.4 0.00 0.00 0.00 70 1012.4
20260507180840 16 204 3.2 6.4 0.00 0.00 0.00 70 1012.4
20260507180340 16 101 3.2 4.8 0.00 0.00 0.00 69 1012.2
20260507175840 16 192 3.2 6.4 0.00 0.00 0.00 69 1012.3
20260507175339 16 195 4.8 8.0 0.00 0.00 0.00 67 1012.1
20260507174840 16 194 3.2 8.0 0.00 0.00 0.00 67 1012.3
20260507174340 16 198 3.2 8.0 0.00 0.00 0.00 66 1011.9
20260507173839 16 216 4.8 6.4 0.00 0.00 0.00 65 1012.2
20260507173339 16 213 3.2 6.4 0.00 0.00 0.00 65 1012.1
20260507172340 16 220 3.2 9.7 0.00 0.00 0.00 65 1012.0
20260507171840 16 126 1.6 11.3 0.00 0.00 0.00 64 1011.7
20260507170339 17 234 8.0 16.1 0.00 0.00 0.00 60 1011.6
20260507165840 17 140 3.2 16.1 0.00 0.00 0.00 57 1011.5
20260507165340 17 208 3.2 9.7 0.00 0.00 0.00 58 1011.5
20260507164840 17 202 4.8 8.0 0.00 0.00 0.00 59 1011.8
20260507164340 17 229 3.2 11.3 0.00 0.00 0.00 58 1011.6
20260507163339 17 175 3.2 24.1 0.00 0.00 0.00 56 1011.4
20260507162839 17 201 3.2 17.7 0.00 0.00 0.00 55 1011.5
20260507162340 18 217 6.4 17.7 0.00 0.00 0.00 54 1011.5
20260507161839 18 184 3.2 16.1 0.00 0.00 0.00 53 1011.3
20260507161340 18 196 6.4 16.1 0.00 0.00 0.00 52 1011.3
20260507160839 18 199 14.5 16.1 0.00 0.00 0.00 51 1011.3
20260507160339 18 197 8.0 14.5 0.00 0.00 0.00 49 1011.1
20260507155840 19 185 3.2 14.5 0.00 0.00 0.00 47 1011.2
20260507154840 20 83 0.0 4.8 0.00 0.00 0.00 44 1011.0
20260507154340 21 146 0.0 3.2 0.00 0.00 0.00 41 1011.1
20260507153840 21 208 0.0 3.2 0.00 0.00 0.00 40 1011.1
20260507153340 21 315 0.0 6.4 0.00 0.00 0.00 41 1011.0
20260507152839 21 340 0.0 6.4 0.00 0.00 0.00 40 1011.2
20260507151840 21 236 0.0 8.0 0.00 0.00 0.00 40 1011.0
20260507151340 21 306 3.2 8.0 0.00 0.00 0.00 39 1010.9
20260507150840 22 27 3.2 4.8 0.00 0.00 0.00 38 1010.9
20260507150339 22 199 3.2 6.4 0.00 0.00 0.00 38 1010.9
20260507145840 22 220 4.8 6.4 0.00 0.00 0.00 37 1010.9
20260507144340 23 315 0.0 11.3 0.00 0.00 0.00 37 1010.8
20260507143840 23 355 3.2 11.3 0.00 0.00 0.00 38 1011.0
20260507142840 23 256 0.0 6.4 0.00 0.00 0.00 36 1010.9
20260507142340 22 353 3.2 6.4 0.00 0.00 0.00 38 1010.9
20260507141840 22 306 1.6 8.0 0.00 0.00 0.00 38 1011.0
20260507141340 21 36 1.6 17.7 0.00 0.00 0.00 40 1010.9
20260507140840 21 2 14.5 20.9 0.00 0.00 0.00 41 1011.1
20260507140340 22 352 12.9 20.9 0.00 0.00 0.00 40 1011.0
20260507135340 22 24 4.8 4.8 0.00 0.00 0.00 36 1010.8
20260507134840 22 204 1.6 4.8 0.00 0.00 0.00 37 1011.0
20260507133340 22 226 9.7 9.7 0.00 0.00 0.00 36 1010.9
20260507132340 22 224 0.0 9.7 0.00 0.00 0.00 38 1011.4
20260507131840 22 248 6.4 9.7 0.00 0.00 0.00 39 1011.3
20260507131340 21 207 4.8 9.7 0.00 0.00 0.00 39 1011.1
20260507130340 22 1 0.0 8.0 0.00 0.00 0.00 41 1011.2
20260507125841 22 135 0.0 11.3 0.00 0.00 0.00 40 1011.3
20260507125340 22 244 3.2 11.3 0.00 0.00 0.00 38 1011.4
20260507124340 23 231 3.2 14.5 0.00 0.00 0.00 38 1011.6
20260507123840 22 197 0.0 9.7 0.00 0.00 0.00 41 1011.3
20260507122840 23 216 6.4 12.9 0.00 0.00 0.00 38 1011.5
20260507122340 21 138 0.0 12.9 0.00 0.00 0.00 42 1011.3
20260507121840 21 189 9.7 22.5 0.00 0.00 0.00 41 1011.4
20260507121340 22 222 9.7 22.5 0.00 0.00 0.00 41 1011.5
20260507120840 23 260 3.2 14.5 0.00 0.00 0.00 39 1011.5
20260507120340 23 17 3.2 12.9 0.00 0.00 0.00 38 1011.6
20260507115839 23 294 1.6 14.5 0.00 0.00 0.00 40 1011.5
20260507115340 22 40 3.2 14.5 0.00 0.00 0.00 41 1011.7
20260507114352 22 211 3.2 6.4 0.00 0.00 0.00 39 1011.8
20260507113339 22 257 0.0 11.3 0.00 0.00 0.00 44 1012.1
20260507112339 21 231 0.0 9.7 0.00 0.00 0.00 43 1011.7
20260507111839 21 227 3.2 17.7 0.00 0.00 0.00 43 1012.1
20260507111340 20 239 3.2 17.7 0.00 0.00 0.00 44 1011.7
20260507110841 21 218 3.2 17.7 0.00 0.00 0.00 45 1012.1
20260507105841 22 236 9.7 9.7 0.00 0.00 0.00 41 1012.3
20260507105340 23 256 3.2 9.7 0.00 0.00 0.00 38 1012.0
20260507103840 21 222 3.2 16.1 0.00 0.00 0.00 43 1012.0
20260507103345 22 265 4.8 11.3 0.00 0.00 0.00 42 1012.1
20260507102840 21 237 3.2 11.3 0.00 0.00 0.00 44 1012.3
20260507102340 21 251 4.8 20.9 0.00 0.00 0.00 42 1012.3
20260507101839 21 242 4.8 20.9 0.00 0.00 0.00 43 1012.4
20260507101340 21 115 0.0 14.5 0.00 0.00 0.00 43 1012.3
20260507100839 21 306 4.8 14.5 0.00 0.00 0.00 44 1012.3
20260507100353 21 357 1.6 6.4 0.00 0.00 0.00 46 1012.4
20260507095840 20 217 1.6 6.4 0.00 0.00 0.00 47 1012.4
20260507095340 20 328 1.6 9.7 0.00 0.00 0.00 47 1012.4
20260507094841 20 332 3.2 9.7 0.00 0.00 0.00 49 1012.3
20260507094340 20 350 3.2 9.7 0.00 0.00 0.00 48 1012.1
20260507093840 20 233 3.2 9.7 0.00 0.00 0.00 47 1012.1
20260507092840 20 285 1.6 14.5 0.00 0.00 0.00 50 1012.1
20260507092341 19 221 4.8 8.0 0.00 0.00 0.00 52 1011.9
20260507091840 19 241 6.4 9.7 0.00 0.00 0.00 51 1012.1
20260507090840 18 192 3.2 8.0 0.00 0.00 0.00 51 1012.1
20260507090340 19 8 1.6 8.0 0.00 0.00 0.00 52 1012.0
20260507085840 19 231 4.8 8.0 0.00 0.00 0.00 51 1011.9
20260507085340 19 24 4.8 8.0 0.00 0.00 0.00 51 1012.1
20260507084840 19 209 6.4 8.0 0.00 0.00 0.00 51 1012.1
20260507084340 18 272 1.6 6.4 0.00 0.00 0.00 53 1011.9
20260507083840 18 25 3.2 14.5 0.00 0.00 0.00 56 1011.8
20260507083340 17 240 3.2 14.5 0.00 0.00 0.00 56 1011.8
20260507082840 17 199 6.4 12.9 0.00 0.00 0.00 56 1011.6
20260507082340 18 205 0.0 8.0 0.00 0.00 0.00 56 1011.8
20260507080840 18 233 11.3 14.5 0.00 0.00 0.00 54 1011.8
20260507075340 17 214 6.4 8.0 0.00 0.00 0.00 55 1011.6
20260507074340 17 223 4.8 8.0 0.00 0.00 0.00 55 1011.8
20260507073840 17 269 3.2 9.7 0.00 0.00 0.00 57 1011.4
20260507073340 17 242 3.2 11.3 0.00 0.00 0.00 56 1011.6
20260507072340 17 240 3.2 11.3 0.00 0.00 0.00 58 1011.4
20260507071340 17 259 3.2 9.7 0.00 0.00 0.00 58 1011.2
20260507070840 17 11 3.2 9.7 0.00 0.00 0.00 59 1011.4
20260507070353 17 207 6.4 9.7 0.00 0.00 0.00 57 1011.2
20260507065840 17 225 9.7 9.7 0.00 0.00 0.00 59 1011.3
20260507065340 17 359 1.6 9.7 0.00 0.00 0.00 62 1011.2
20260507064840 17 220 6.4 9.7 0.00 0.00 0.00 62 1011.3
20260507064340 16 225 6.4 14.5 0.00 0.00 0.00 64 1011.4
20260507062839 15 224 8.0 17.7 0.00 0.00 0.00 69 1011.6
20260507062340 15 195 3.2 14.5 0.00 0.00 0.00 70 1011.4
20260507061853 15 349 1.6 14.5 0.00 0.00 0.00 71 1011.1
20260507061340 14 221 3.2 17.7 0.00 0.00 0.00 72 1011.3
20260507060839 14 229 3.2 17.7 0.00 0.00 0.00 73 1011.3
20260507060340 14 233 11.3 17.7 0.00 0.00 0.00 73 1011.3
20260507055840 14 96 1.6 11.3 0.00 0.00 0.00 73 1010.9
20260507055340 14 217 4.8 11.3 0.00 0.00 0.00 72 1011.0
20260507054340 14 255 3.2 12.9 0.00 0.00 0.00 73 1010.6
20260507053841 14 235 8.0 12.9 0.00 0.00 0.00 74 1010.9
20260507053341 13 234 4.8 14.5 0.00 0.00 0.00 74 1010.6
20260507052840 13 278 3.2 14.5 0.00 0.00 0.00 74 1010.6
20260507052340 13 240 8.0 11.3 0.00 0.00 0.00 75 1010.6
20260507051840 13 222 1.6 11.3 0.00 0.00 0.00 76 1010.9
20260507050840 13 254 4.8 16.1 0.00 0.00 0.00 76 1010.6
20260507050339 13 237 8.0 17.7 0.00 0.00 0.00 76 1010.6
20260507045840 13 225 12.9 17.7 0.00 0.00 0.00 76 1010.4
20260507045340 13 232 6.4 14.5 0.00 0.00 0.00 76 1010.5
20260507044840 13 238 11.3 14.5 0.00 0.00 0.00 77 1010.3
20260507044339 13 229 6.4 9.7 0.00 0.00 0.00 77 1010.3
20260507043840 13 215 3.2 11.3 0.00 0.00 0.00 78 1010.3
20260507043340 12 204 3.2 12.9 0.00 0.00 0.00 78 1010.0
20260507042840 12 213 1.6 14.5 0.00 0.00 0.00 79 1009.9
20260507042340 12 211 12.9 14.5 0.00 0.00 0.00 79 1010.1
20260507041840 12 201 3.2 9.7 0.00 0.00 0.00 79 1009.9
20260507040840 12 169 3.2 8.0 0.00 0.00 0.00 79 1009.9
20260507035840 12 264 3.2 9.7 0.00 0.00 0.00 80 1009.7
20260507035340 12 221 6.4 8.0 0.00 0.00 0.00 80 1009.7
20260507034839 12 203 3.2 8.0 0.00 0.00 0.00 80 1009.7
20260507034340 12 210 3.2 8.0 0.00 0.00 0.00 80 1009.6
20260507033340 12 206 4.8 6.4 0.00 0.00 0.00 79 1009.5
20260507032340 13 196 4.8 6.4 0.00 0.00 0.00 79 1009.9
20260507031840 13 202 3.2 9.7 0.00 0.00 0.00 78 1009.5
20260507031340 13 220 6.4 9.7 0.00 0.00 0.00 78 1009.4
20260507030840 13 219 1.6 6.4 0.00 0.00 0.00 78 1009.5
20260507025841 13 227 3.2 11.3 0.00 0.00 0.00 78 1009.2
20260507025340 13 220 3.2 11.3 0.00 0.00 0.00 78 1009.0
20260507024840 13 194 6.4 8.0 0.00 0.00 0.00 78 1009.0
20260507024339 13 197 3.2 8.0 0.00 0.00 0.00 78 1009.2
20260507023840 13 176 1.6 6.4 0.00 0.00 0.00 77 1009.0
20260507022840 13 197 4.8 9.7 0.00 0.00 0.00 77 1009.0
20260507021853 13 218 1.6 8.0 0.00 0.00 0.00 78 1009.0
20260507020840 13 216 9.7 9.7 0.00 0.00 0.00 78 1008.9
20260507020339 13 246 9.7 9.7 0.00 0.00 0.00 78 1009.2
20260507015840 13 206 3.2 9.7 0.00 0.00 0.00 78 1008.8
20260507015341 13 152 1.6 11.3 0.00 0.00 0.00 78 1008.8
20260507014840 13 228 6.4 11.3 0.00 0.00 0.00 78 1008.7
20260507014340 13 204 3.2 8.0 0.00 0.00 0.00 78 1008.8
20260507013839 13 196 4.8 8.0 0.00 0.00 0.00 78 1008.8
20260507013353 13 207 3.2 8.0 0.00 0.00 0.00 78 1008.6
20260507012839 14 184 6.4 6.4 0.00 0.00 0.00 78 1008.3
20260507012340 14 233 3.2 8.0 0.00 0.00 0.00 77 1008.4
20260507011840 14 212 1.6 9.7 0.00 0.00 0.00 77 1008.4
20260507011353 14 210 4.8 9.7 0.00 0.00 0.00 76 1008.5
20260507010340 15 227 9.7 14.5 0.00 0.00 0.00 75 1008.4
20260507005840 15 217 4.8 4.8 0.00 0.00 0.00 74 1008.4
20260507005340 15 354 1.6 4.8 0.00 0.00 0.00 73 1008.3
20260507004840 15 250 3.2 4.8 0.00 0.00 0.00 73 1008.3
20260507004340 15 197 0.0 4.8 0.00 0.00 0.00 72 1008.2
20260507003840 15 29 0.0 6.4 0.00 0.00 0.00 71 1008.3
20260507003340 15 211 3.2 6.4 0.00 0.00 0.00 71 1008.2
20260507002839 15 243 1.6 4.8 0.00 0.00 0.00 71 1007.9
20260507002340 15 33 0.0 4.8 0.00 0.00 0.00 71 1007.8
20260507001840 15 224 3.2 4.8 0.00 0.00 0.00 70 1007.8
20260507001340 15 180 0.0 3.2 0.00 0.00 0.00 70 1007.9
20260507000840 15 11 0.0 4.8 0.00 0.00 0.00 70 1007.6
20260507000353 15 195 0.0 4.8 0.00 0.00 0.00 69 1007.9
20260506235840 15 232 3.2 6.4 0.00 0.00 0.00 69 1007.6
20260506235340 15 240 3.2 8.0 0.00 0.00 0.00 69 1007.5
20260506234840 15 279 0.0 8.0 0.00 0.00 0.00 68 1007.6
20260506232840 15 314 3.2 6.4 0.00 0.00 0.00 67 1007.3
20260506231840 16 306 1.6 6.4 0.00 0.00 0.00 66 1006.9
20260506231340 16 234 4.8 9.7 0.00 0.00 0.00 66 1007.0
20260506230840 16 278 4.8 9.7 0.00 0.00 0.00 65 1007.0
20260506230340 16 233 3.2 9.7 0.00 0.00 0.00 65 1006.9
20260506225840 16 5 6.4 9.7 0.00 0.00 0.00 65 1007.1
20260506225339 16 137 3.2 9.7 0.00 0.00 0.00 66 1007.0
20260506224840 16 211 0.0 8.0 0.00 0.00 0.00 67 1006.8
20260506224340 16 275 3.2 8.0 0.00 0.00 0.00 68 1006.8
20260506223353 16 7 3.2 6.4 0.00 0.00 0.00 69 1006.4
20260506222839 16 353 3.2 6.4 0.00 0.00 0.00 69 1006.3
20260506221840 16 259 3.2 8.0 0.00 0.00 0.00 68 1006.3
20260506221340 16 351 3.2 8.0 0.00 0.00 0.00 68 1006.2
20260506220840 16 217 3.2 8.0 0.00 0.00 0.00 68 1006.1
20260506220340 16 25 1.6 4.8 0.00 0.00 0.00 68 1005.9
20260506215340 16 236 1.6 6.4 0.00 0.00 0.00 67 1005.5
20260506214841 16 342 3.2 6.4 0.00 0.00 0.00 66 1005.5
20260506214340 17 249 4.8 6.4 0.00 0.00 0.00 66 1005.6
20260506213840 17 255 3.2 6.4 0.00 0.00 0.00 65 1005.4
20260506212840 17 241 3.2 14.5 0.00 0.00 0.00 64 1005.3
20260506212340 16 265 9.7 14.5 0.00 0.00 0.00 65 1005.5
20260506211840 17 227 3.2 6.4 0.00 0.00 0.00 65 1004.5
20260506210841 17 162 3.2 9.7 0.00 0.00 0.00 64 1004.5
20260506210340 17 184 4.8 8.0 0.00 0.00 0.00 64 1004.5
20260506205839 17 170 6.4 8.0 0.00 0.00 0.00 63 1004.2
20260506205340 17 241 0.0 6.4 0.00 0.00 0.00 63 1004.4
20260506204840 17 255 0.0 6.4 0.00 0.00 0.00 62 1004.3
20260506204340 17 219 3.2 4.8 0.00 0.00 0.00 62 1004.4
20260506203839 17 87 0.0 8.0 0.00 0.00 0.00 61 1004.1
20260506203339 18 11 0.0 9.7 0.00 0.00 0.00 61 1004.2
20260506202840 18 0 0.0 9.7 0.00 0.00 0.00 60 1004.2
20260506202340 18 195 1.6 11.3 0.00 0.00 0.00 60 1004.1
20260506201840 18 216 6.4 12.9 0.00 0.00 0.00 59 1004.1
20260506201340 18 230 6.4 19.3 0.00 0.00 0.00 59 1003.9
20260506200840 18 178 9.7 19.3 0.00 0.00 0.00 58 1003.7
20260506200353 18 180 4.8 14.5 0.00 0.00 0.00 58 1003.9